GEFSGL_500_meanwind_282.txt.gz
Wind_Speed
17 17 17 17 17 17 18 18 18 17 17 17 18 17 17 18 18 18 18 18 19 19 19 19 18 18 18 19 19 19 19 19 18 18 17 17 17 18 19 19 19 19 19
17 17 17 17 18 18 18 18 18 18 19 19 18 18 18 18 18 18 19 19 19 20 20 20 19 19 19 19 19 20 19 19 19 19 18 18 18 19 19 20 20 20 20
18 18 18 18 18 18 18 19 19 19 19 19 19 19 19 19 19 19 19 20 20 20 20 20 20 20 20 20 20 20 20 19 19 20 20 19 19 20 20 20 20 20 20
19 19 19 19 19 19 19 19 19 19 19 19 18 19 19 19 19 20 20 20 20 20 20 20 20 20 20 20 20 20 20 20 20 20 20 20 20 19 20 20 20 19 19
20 19 19 19 20 20 20 19 19 18 18 18 19 19 19 20 20 20 20 21 21 21 20 20 20 20 21 21 21 21 21 21 21 21 20 20 20 20 20 20 20 20 19
20 20 20 20 20 20 19 19 19 18 18 19 19 20 20 20 20 20 20 21 21 21 20 20 20 21 21 21 21 22 22 22 22 22 22 21 21 21 22 22 22 21 21
20 20 20 21 20 20 19 19 19 19 19 19 20 19 20 20 21 21 21 21 21 21 21 21 21 21 21 22 22 23 23 23 23 23 23 23 22 22 22 22 22 22 22
21 20 20 20 20 20 20 20 20 20 20 20 20 20 20 21 21 22 22 22 23 23 22 22 22 22 22 23 23 24 24 23 23 24 24 23 23 23 23 23 22 22 21
21 21 21 21 20 20 20 21 21 21 21 21 20 21 21 21 22 22 22 22 22 22 22 23 23 23 24 24 25 24 24 24 24 24 24 25 24 24 24 24 23 23 23
21 21 21 21 20 20 21 21 21 21 21 21 21 22 22 22 22 22 23 23 22 22 22 22 23 24 24 25 25 25 24 25 25 25 25 25 25 25 25 25 25 25 25
22 22 22 22 22 22 22 22 22 22 22 22 22 22 23 23 23 23 23 23 23 23 23 23 24 25 25 26 26 26 26 26 26 26 26 26 26 26 26 26 26 27 26
23 23 22 22 22 22 22 22 22 22 23 23 23 23 23 23 23 23 22 23 24 23 24 24 24 24 25 26 27 27 27 27 27 27 27 27 27 27 27 28 28 28 28
24 24 23 23 23 23 23 23 23 23 23 24 23 24 23 23 23 24 24 24 24 24 25 25 25 25 26 27 27 27 27 27 28 27 27 27 28 28 29 28 28 28 28
25 24 24 24 23 23 23 23 23 23 24 24 24 24 24 23 23 24 24 24 25 25 25 25 25 26 26 26 26 27 27 27 27 28 28 27 27 28 29 28 28 28 28
25 25 25 25 24 23 24 24 24 24 24 24 25 25 25 25 25 26 26 26 26 26 26 26 26 25 26 26 27 27 27 27 27 28 28 28 28 28 28 28 28 28 28
26 25 25 25 25 24 24 24 23 23 24 24 24 25 25 26 27 26 26 26 26 26 26 27 26 26 26 26 26 27 28 28 28 28 28 28 28 28 28 28 27 27 28
27 27 27 26 25 26 26 25 24 24 24 24 25 25 26 26 26 27 26 26 26 27 27 26 26 25 26 26 27 27 27 28 28 28 28 28 28 27 27 27 27 27 28
27 27 27 27 27 26 26 26 26 26 26 25 25 26 26 26 26 26 26 26 26 27 27 26 26 26 26 26 26 27 27 27 27 27 28 28 28 27 27 27 27 27 28
28 28 28 28 28 28 28 28 28 28 28 27 26 26 26 26 26 26 26 26 26 27 26 26 25 25 25 25 26 26 27 27 27 27 27 27 28 28 28 28 27 28 28
29 29 29 29 30 29 29 29 29 29 29 28 28 27 27 27 27 27 27 27 27 27 27 26 26 26 26 26 26 27 27 27 27 28 28 28 28 29 28 28 28 28 28
30 29 29 29 30 30 29 30 30 30 30 29 28 28 28 28 28 28 28 28 28 28 27 27 27 27 27 28 28 28 28 28 28 28 29 29 28 28 28 28 28 28 27
28 29 29 30 30 30 29 29 30 29 29 29 29 28 28 29 29 29 29 29 29 28 28 29 29 28 28 28 28 28 28 28 28 28 29 28 28 28 28 28 28 27 27
28 29 29 29 30 30 30 29 29 29 29 29 28 28 28 29 29 30 30 29 29 28 28 28 28 28 28 28 28 28 28 28 28 28 28 28 28 28 28 27 27 27 26
29 29 29 29 30 30 29 29 30 29 29 29 29 29 29 28 29 29 30 29 29 29 29 29 29 29 29 29 29 29 29 28 28 28 28 28 28 27 27 27 26 26 26
30 30 30 30 30 29 29 30 29 29 29 29 29 29 30 30 29 29 28 28 28 28 29 29 29 30 30 30 30 29 29 29 28 28 28 28 27 27 26 26 26 26 26
31 31 30 30 30 29 30 30 30 30 30 30 30 30 30 30 30 29 28 28 28 28 29 29 29 29 30 30 30 29 29 29 29 28 28 27 27 26 27 27 27 26 26

GEFSGL_500_meanwind_288.txt.gz
Wind_Speed
14 14 14 15 15 15 16 16 16 15 15 15 16 16 16 16 17 17 17 17 17 17 17 17 18 18 17 17 18 18 19 19 19 18 18 18 18 18 18 19 19 19 19
15 15 15 15 15 15 15 16 16 16 16 16 17 17 17 17 18 18 18 18 18 18 18 19 19 19 18 18 18 18 18 19 19 19 18 19 19 19 19 20 20 21 21
15 16 16 16 16 16 16 16 16 17 17 17 17 17 17 18 18 18 18 18 19 19 19 19 20 20 19 19 19 19 19 19 19 19 19 19 20 20 20 20 21 21 21
16 16 16 16 17 17 17 17 17 17 17 17 17 17 17 18 18 18 19 19 19 20 20 20 20 19 19 19 19 19 19 20 20 20 20 20 21 22 22 21 21 20 20
17 17 17 17 18 18 18 18 18 17 18 18 18 18 18 18 19 19 19 19 19 19 19 19 19 19 19 19 19 19 20 21 21 21 21 22 22 22 22 21 21 20 20
18 18 18 18 18 18 18 18 18 18 18 18 18 18 18 19 19 20 19 19 19 19 19 19 19 19 19 19 20 20 20 20 21 21 22 22 23 22 22 21 21 21 21
20 19 19 19 19 19 19 19 19 19 19 18 18 18 18 18 19 19 19 19 19 19 19 19 19 19 19 19 20 20 20 21 21 21 22 23 23 22 22 22 22 22 22
20 20 20 20 20 20 20 20 20 20 19 19 19 20 19 19 19 18 19 19 19 20 19 19 18 19 19 19 19 20 20 21 21 22 22 23 23 23 22 23 23 24 24
21 21 20 20 21 20 20 20 20 20 19 19 19 20 20 20 20 20 20 20 20 20 20 19 19 19 19 19 20 21 21 22 22 22 23 23 23 23 24 24 24 25 25
22 22 21 21 21 21 21 21 20 20 20 20 20 20 20 20 20 20 20 20 20 21 20 20 20 20 20 20 21 22 22 22 23 23 23 23 23 23 24 24 24 25 25
23 23 22 22 22 22 22 22 21 21 21 20 20 20 20 20 20 20 20 20 21 21 21 21 22 22 22 22 22 23 23 23 23 23 24 23 23 24 24 25 25 25 26
23 23 23 23 22 22 22 22 22 21 21 20 20 20 20 20 20 20 21 21 22 22 22 22 22 22 22 23 24 24 25 24 24 24 24 24 24 24 24 25 25 26 26
24 23 23 23 22 22 22 22 22 22 21 21 22 21 21 21 21 21 22 22 22 23 23 23 23 23 23 24 25 25 26 25 25 25 25 25 25 24 24 25 25 26 27
24 23 23 23 23 22 22 22 22 22 22 22 22 22 22 22 22 22 23 23 23 23 23 23 23 24 25 26 26 26 26 25 25 26 26 26 26 25 25 26 26 26 27
25 24 24 24 24 23 23 23 23 24 23 23 23 23 23 23 23 24 24 24 24 25 24 24 24 25 25 26 26 26 26 26 26 26 26 26 26 26 26 26 27 27 27
26 25 25 25 25 24 24 24 24 25 25 25 24 24 24 25 25 25 25 25 25 25 25 25 25 25 26 27 27 27 26 26 26 26 26 26 26 26 27 27 28 28 28
27 26 26 26 26 25 25 25 25 25 25 25 25 25 26 26 26 26 26 26 25 25 25 25 25 25 26 26 26 26 26 27 27 27 27 27 27 27 28 29 29 29 29
28 28 28 27 27 26 26 26 26 26 25 25 26 26 27 27 27 27 26 26 25 25 25 25 25 26 26 26 26 26 27 27 27 28 27 27 27 28 28 29 30 30 30
29 29 28 28 28 27 27 27 27 27 27 27 26 27 27 27 28 27 27 27 27 26 27 27 27 27 27 27 27 26 26 27 27 28 28 28 28 28 28 29 29 30 29
30 29 29 28 28 28 28 28 27 28 28 28 27 27 28 28 27 27 28 28 28 28 28 28 29 29 29 28 27 27 27 27 27 28 29 29 29 29 29 29 29 29 29
30 30 29 29 29 29 29 29 28 28 29 28 28 28 28 28 28 28 28 28 28 28 28 28 28 28 28 27 27 27 27 27 27 28 28 29 29 29 29 29 29 29 28
31 31 30 30 29 29 29 29 29 29 29 29 29 29 28 28 28 28 28 28 28 28 29 29 28 28 28 28 28 27 27 28 28 28 28 28 29 29 29 29 29 28 27
32 31 31 31 30 30 30 30 30 30 30 30 30 30 29 29 29 29 29 28 28 29 29 30 30 29 29 28 28 28 29 29 29 29 29 29 29 28 28 28 28 27 27
32 32 32 32 31 31 31 31 30 31 30 30 30 29 29 29 29 29 29 29 30 30 30 30 30 29 29 28 29 30 30 30 29 29 29 28 28 28 27 27 27 27 27
31 32 32 32 32 31 31 31 31 30 30 30 30 29 29 29 30 30 30 30 30 31 31 31 30 30 29 29 29 30 30 30 31 31 30 29 29 28 27 26 26 26 26
31 32 31 31 31 31 31 31 31 30 30 30 30 30 30 30 30 30 30 30 30 31 31 31 31 30 29 29 29 30 30 30 31 31 30 29 28 28 27 27 26 26 26

GEFSGL_500_meanwind_294.txt.gz
Wind_Speed
14 15 15 15 15 15 15 15 16 16 16 16 16 16 16 17 17 17 17 17 18 18 18 18 18 19 19 19 19 19 19 19 18 18 19 19 19 19 19 19 20 20 20
15 15 15 15 15 15 15 16 16 16 16 16 16 16 17 17 17 18 18 18 19 19 19 19 19 19 19 19 19 19 19 19 19 19 19 19 20 20 20 20 20 20 21
16 16 15 15 15 15 16 16 16 16 16 16 16 17 17 17 18 18 18 19 20 20 20 20 20 20 19 19 19 19 19 19 19 19 20 20 20 20 20 21 21 20 21
17 17 16 16 16 16 17 17 17 17 17 17 17 17 17 17 18 18 18 18 18 19 20 20 20 19 19 19 18 18 18 19 19 19 20 20 20 20 21 21 21 21 21
17 17 17 17 16 17 17 17 17 18 17 18 18 18 17 17 18 18 18 18 18 19 20 20 19 19 19 18 18 17 17 18 18 19 19 19 19 20 20 21 21 21 21
18 17 17 17 18 18 18 18 18 18 18 18 18 18 18 18 18 19 19 19 19 20 20 19 19 18 18 17 17 17 17 18 18 18 19 19 19 20 20 21 21 21 20
18 18 18 18 18 18 18 18 19 19 18 18 18 18 18 18 19 19 19 20 19 19 19 19 19 18 18 18 18 18 18 18 18 19 20 20 20 21 21 21 21 21 21
18 18 18 18 18 19 19 19 20 20 19 19 19 19 19 19 18 19 20 20 20 20 19 19 19 19 19 19 19 19 19 19 20 21 21 21 21 22 22 21 21 21 22
20 19 19 19 19 19 20 20 20 20 20 20 20 20 19 19 19 19 19 19 20 20 19 19 19 19 19 19 20 20 20 20 21 21 22 23 23 22 22 23 23 23 23
21 21 21 20 20 20 21 21 21 21 21 21 21 20 20 20 20 20 20 20 20 20 19 19 19 19 19 19 20 20 21 21 22 22 23 24 24 23 23 24 24 24 24
22 23 23 23 23 23 22 22 23 23 23 22 21 21 21 20 21 20 20 20 20 20 20 20 20 20 20 21 21 22 22 22 22 23 24 24 24 24 24 25 25 25 25
24 24 24 24 24 24 24 25 24 24 23 23 22 21 21 21 21 21 21 21 21 21 20 20 21 21 21 21 22 22 23 23 23 23 24 25 24 25 25 25 25 25 25
25 25 25 25 25 26 26 26 25 25 25 24 23 23 23 22 22 22 22 22 22 21 21 21 21 22 22 23 23 23 24 25 25 25 25 25 25 25 26 25 25 25 25
26 25 26 26 26 26 26 26 25 25 25 25 24 24 24 24 24 24 23 23 23 23 22 22 22 23 24 24 24 24 25 25 25 25 25 25 26 25 25 25 25 25 25
27 26 26 26 26 26 26 26 25 25 25 26 26 26 26 26 26 25 25 25 25 24 24 23 24 24 24 25 26 25 26 26 26 26 26 26 26 26 26 26 25 25 26
28 27 27 27 27 27 27 26 26 26 25 26 26 27 27 27 26 26 26 26 26 26 26 26 26 25 25 26 26 26 26 27 27 27 27 27 27 27 26 26 26 27 26
29 28 28 28 28 28 28 27 27 26 27 27 27 27 27 27 27 27 28 27 26 27 27 28 27 27 27 27 27 27 27 28 28 28 28 28 28 27 27 27 27 28 28
30 30 30 29 29 29 29 28 28 28 27 28 28 27 28 28 28 28 28 28 27 28 28 28 28 28 28 28 28 28 28 29 29 29 29 29 28 28 28 28 28 29 29
32 31 31 30 30 30 30 29 29 28 28 28 29 29 29 29 29 29 28 28 28 28 28 28 28 29 29 29 29 29 29 29 29 29 29 29 29 29 29 29 29 29 29
32 31 31 31 31 31 30 30 30 30 30 30 29 29 30 30 30 29 29 29 29 29 29 29 29 29 29 29 29 29 29 29 30 30 30 30 29 29 29 30 30 30 30
31 31 32 32 32 32 32 32 32 32 31 31 31 30 31 31 31 30 30 29 29 30 30 30 30 30 30 30 30 30 30 30 30 30 30 30 30 29 30 30 30 30 30
32 32 33 33 33 33 33 33 33 33 33 33 32 32 32 31 31 31 30 30 30 30 30 30 30 30 30 30 30 31 31 31 31 30 30 30 30 30 30 30 30 30 29
33 33 34 34 34 34 34 34 34 34 34 34 33 33 32 32 31 31 30 31 31 31 31 31 31 30 30 30 30 31 31 31 31 31 31 31 31 31 31 31 30 30 30
33 34 35 35 35 34 34 34 34 34 34 34 34 33 33 33 31 31 31 32 32 32 32 32 32 31 32 32 31 31 31 31 31 32 32 32 32 32 32 31 31 31 31
34 35 35 35 35 35 34 33 33 33 33 33 33 33 33 33 32 32 32 32 33 33 32 32 32 32 32 32 32 32 31 32 32 32 32 32 32 32 32 32 32 32 31
35 36 36 35 35 35 34 33 32 32 32 33 33 33 33 33 33 33 33 33 33 33 32 32 33 32 32 32 32 32 32 31 31 31 31 31 31 31 31 32 32 32 32

GEFSGL_500_meanwind_300.txt.gz
Wind_Speed
16 16 17 17 17 16 16 16 16 16 16 16 16 17 17 16 16 17 17 17 17 17 16 16 16 16 16 17 17 17 17 17 17 17 18 18 19 19 19 19 20 20 20
16 17 18 18 17 17 16 16 16 16 16 16 16 16 17 17 17 17 17 17 18 18 17 17 17 16 16 17 17 17 17 17 17 17 18 19 19 20 20 19 20 20 20
16 17 18 18 17 17 17 17 17 17 17 17 17 17 17 17 17 17 18 18 19 19 18 18 17 17 17 17 17 17 17 17 18 17 17 18 19 19 20 20 20 19 20
18 18 18 18 18 18 18 18 17 18 18 17 17 17 17 17 17 17 17 18 18 19 19 18 17 17 17 17 18 17 17 17 17 17 17 18 18 18 19 19 19 20 20
19 19 19 18 19 19 19 19 19 18 18 18 18 18 17 17 17 17 17 17 17 18 19 18 18 18 18 18 18 17 17 17 17 17 17 18 18 17 18 19 19 19 20
21 21 20 20 20 20 20 20 20 19 19 18 18 18 18 18 17 18 17 17 17 18 18 18 18 18 17 18 18 17 16 16 16 17 17 18 18 18 18 18 19 20 20
22 22 22 21 22 21 20 20 20 20 20 19 19 19 18 18 18 18 18 18 18 18 18 18 18 18 18 18 17 17 16 16 17 17 17 17 18 18 19 19 20 21 21
23 22 22 22 22 23 23 21 20 19 19 19 19 19 18 18 18 18 18 18 18 18 18 18 18 18 18 17 17 17 17 17 17 18 18 18 19 19 20 20 21 21 22
23 23 22 22 22 22 22 22 21 20 20 19 19 19 18 18 18 18 18 18 18 18 18 18 18 17 17 17 18 18 18 17 18 18 18 19 19 19 20 20 21 22 22
23 22 21 21 21 21 21 22 22 22 21 20 19 19 19 18 18 18 18 18 18 18 19 19 19 18 18 18 19 18 19 19 19 19 20 20 20 20 21 21 21 22 22
22 22 21 21 21 21 21 21 21 21 22 22 21 20 20 20 20 20 19 18 18 18 19 19 20 20 19 19 19 19 19 19 20 20 21 21 21 21 21 21 22 22 22
23 23 23 23 22 22 21 21 22 22 22 22 23 23 23 22 22 21 20 20 20 20 20 20 20 21 21 20 20 20 20 21 21 21 22 22 22 22 22 22 23 23 23
24 24 24 24 23 23 23 23 23 23 23 23 24 25 24 24 24 23 23 23 23 22 22 21 22 22 22 22 22 22 22 22 22 22 22 22 23 23 24 24 24 24 24
25 25 25 25 25 24 24 24 24 24 24 25 25 25 25 26 26 26 26 26 25 25 24 24 24 24 24 23 24 24 24 24 24 24 24 24 24 24 24 25 25 25 24
27 27 27 27 26 25 25 26 26 25 26 26 26 27 27 27 27 27 27 27 27 27 27 26 27 26 25 25 25 25 26 26 26 25 25 25 25 25 25 25 25 25 25
27 27 27 27 27 27 27 27 26 27 27 27 27 27 28 28 28 28 28 28 28 29 29 29 29 28 28 27 27 27 27 27 27 27 26 27 27 27 26 26 26 26 26
27 27 28 28 29 29 29 28 27 27 27 28 28 27 28 28 28 28 29 29 29 29 30 31 31 30 30 29 29 28 28 28 28 27 27 27 27 27 27 27 27 27 27
29 29 28 29 29 29 29 29 28 28 28 29 29 28 27 28 28 29 29 30 30 30 30 31 31 31 31 30 30 29 29 29 29 29 29 29 29 29 29 29 28 28 28
30 30 30 29 30 30 30 30 30 29 29 29 29 28 28 28 29 29 29 30 31 30 30 31 31 31 31 31 31 30 30 30 31 30 30 30 30 30 30 30 30 30 29
31 31 31 30 30 31 31 31 31 31 31 31 31 30 30 30 30 30 30 30 30 31 32 32 32 31 31 31 31 32 32 32 32 32 32 31 31 31 30 30 30 30 30
31 31 31 32 32 32 32 32 33 32 33 33 33 33 32 31 31 32 31 31 31 31 32 32 33 33 33 33 32 32 33 33 33 32 33 33 32 32 32 31 31 31 30
32 32 32 33 33 33 33 33 33 34 33 33 34 34 33 33 32 32 32 32 32 33 32 32 33 33 33 33 32 32 32 33 33 32 32 33 33 32 32 31 31 30 30
32 33 33 33 34 34 34 33 33 33 33 34 34 34 34 33 32 33 32 32 32 32 32 32 32 32 33 33 33 32 32 33 33 32 32 32 33 32 32 31 31 31 31
33 33 33 34 34 34 34 33 33 33 34 34 34 34 34 34 33 33 32 31 31 31 31 31 32 32 32 32 32 32 33 33 32 32 32 33 33 32 32 32 32 32 32
34 34 34 34 34 34 34 33 33 34 34 34 34 34 34 33 33 32 31 31 30 31 31 31 31 31 32 32 32 32 32 32 33 33 32 32 32 32 32 32 32 32 32
34 34 35 35 35 35 35 34 33 34 34 34 34 34 33 33 33 32 31 30 30 31 31 32 32 32 32 32 32 33 33 33 33 33 33 33 33 33 33 33 33 33 33

GEFSGL_500_meanwind_306.txt.gz
Wind_Speed
19 19 19 18 19 19 18 18 18 18 18 18 18 19 19 19 19 20 19 19 18 18 18 18 18 18 19 18 18 18 18 18 18 17 17 16 16 17 17 18 18 18 18
19 19 19 19 19 19 19 19 19 19 19 19 19 20 20 20 20 20 20 19 18 18 18 18 18 18 18 18 19 18 17 17 17 17 17 17 17 16 17 18 18 18 18
20 19 19 20 20 20 19 20 20 20 20 20 20 21 20 19 19 19 18 18 18 18 18 18 18 18 18 18 18 18 17 17 17 17 17 17 17 17 17 17 18 18 18
21 21 21 20 21 21 21 20 20 20 21 21 20 20 19 19 18 17 18 18 18 18 18 18 18 18 18 18 17 16 16 17 17 17 17 17 18 18 18 18 18 19 18
21 22 22 22 22 21 22 22 22 21 21 21 20 19 19 19 18 17 17 17 17 18 18 18 18 18 18 18 17 17 16 17 17 17 17 17 17 18 18 18 18 19 18
21 22 22 23 22 22 22 23 22 21 21 21 21 20 19 19 19 18 17 17 17 18 17 18 18 18 18 18 18 18 17 17 17 17 17 17 18 18 17 17 18 18 19
22 22 22 22 22 22 23 23 23 23 22 21 20 20 20 19 19 19 18 19 19 18 18 18 18 18 17 18 18 18 18 17 17 17 17 17 18 18 17 18 18 18 18
23 23 23 23 22 22 23 23 24 24 24 22 21 21 20 20 20 20 20 19 19 19 18 18 18 18 18 18 18 19 19 18 18 18 18 18 18 18 18 18 18 19 19
24 24 23 23 23 23 23 23 23 23 23 23 22 22 21 21 21 22 21 21 20 19 19 19 19 19 19 19 19 18 18 18 18 19 19 19 19 19 19 19 19 19 20
24 24 24 24 24 24 24 24 24 23 23 23 23 23 23 23 23 23 23 23 21 20 20 20 20 21 20 20 20 19 19 19 19 19 19 19 19 19 19 19 19 20 20
26 25 25 25 25 24 24 24 24 23 23 22 23 23 23 24 23 23 24 24 23 22 21 21 21 21 22 21 22 22 21 20 20 21 20 20 20 20 20 20 20 21 21
26 26 26 26 26 25 24 24 24 24 24 23 23 23 24 24 24 24 24 24 24 23 23 23 23 23 23 23 23 23 24 23 22 22 22 21 21 21 21 22 22 22 22
26 26 26 26 26 26 25 25 25 25 25 25 24 24 25 25 25 25 25 26 25 25 25 25 25 25 25 25 25 25 25 25 25 24 23 23 23 23 23 23 22 23 23
26 26 26 26 26 26 26 26 26 26 26 26 26 26 26 25 26 26 26 26 25 25 26 26 26 26 26 27 27 27 26 26 26 25 25 25 25 25 25 24 23 23 23
28 28 28 28 27 27 27 27 28 28 28 27 28 27 27 27 27 27 27 27 27 27 27 27 27 28 28 28 28 28 28 27 27 27 26 25 26 26 26 25 25 25 25
30 30 30 29 29 29 29 29 29 29 29 29 29 28 28 29 29 30 30 29 29 29 29 29 29 29 28 28 28 28 28 28 27 27 27 27 27 27 27 26 26 26 26
31 30 30 30 30 30 30 30 29 30 30 31 31 31 31 31 30 31 30 30 30 30 30 30 30 29 29 28 29 29 29 29 29 29 29 29 29 28 28 27 27 28 28
31 31 31 31 30 30 30 30 31 31 31 31 32 32 32 32 31 31 31 30 29 30 30 30 31 30 30 30 30 30 30 30 30 30 30 30 30 29 29 29 29 29 29
31 31 31 31 31 31 31 32 32 33 33 33 33 33 33 32 32 32 32 31 30 30 30 30 31 31 31 31 30 30 30 30 30 30 30 31 31 31 30 30 30 30 30
32 32 31 32 32 33 33 34 34 34 34 34 33 33 33 32 32 32 32 32 31 30 30 30 30 31 31 31 31 31 31 31 31 30 31 31 31 32 31 31 31 31 32
33 33 32 32 33 34 34 34 34 34 34 33 33 32 32 32 32 32 31 31 30 29 30 30 30 30 30 30 30 31 31 31 31 31 32 32 31 32 33 32 32 33 33
33 33 33 33 33 33 33 33 32 33 33 33 32 31 31 31 31 30 30 31 31 31 30 30 30 30 30 30 30 30 30 30 30 31 31 31 31 32 32 33 33 33 33
31 32 32 32 32 33 33 33 33 33 33 33 32 32 32 31 31 31 31 31 32 32 31 30 30 30 30 31 31 31 31 31 30 31 31 30 30 31 31 32 33 33 34
31 31 32 32 32 32 32 33 33 34 33 33 32 32 32 32 32 32 32 33 32 32 31 30 30 30 30 31 32 32 32 32 31 31 31 31 31 31 31 32 32 33 34
31 31 31 31 31 32 32 33 34 34 33 33 33 32 32 32 32 32 32 33 33 31 31 31 31 31 31 31 32 32 32 32 32 32 32 31 31 31 32 32 33 33 33
30 30 30 31 31 32 33 33 33 33 33 33 33 33 33 33 33 33 33 33 32 32 32 32 32 32 32 32 32 32 33 33 33 33 33 32 32 33 33 33 33 33 32